Time,TemperatureF,DewpointF,PressureIn,WindDirection,WindDirectionDegrees,WindSpeedMPH,WindSpeedGustMPH,Humidity,HourlyPrecipIn,Conditions,Clouds,dailyrainin,SoftwareType,DateUTC
2013-04-07 00:00:00,33.7,27.6,30.32,South,174,0.0,0.0,78,0.00,,CLR,0.00,VWS V14.01,2013-04-07 04:00:00,
2013-04-07 00:01:00,33.7,27.6,30.32,South,174,0.0,0.0,78,0.00,,CLR,0.00,VWS V14.01,2013-04-07 04:01:00,
2013-04-07 00:06:00,33.9,28.1,30.32,South,174,0.0,1.0,79,0.00,,CLR,0.00,VWS V14.01,2013-04-07 04:06:00,
2013-04-07 00:11:00,34.4,28.6,30.32,South,174,0.0,0.0,79,0.00,,CLR,0.00,VWS V14.01,2013-04-07 04:11:00,
2013-04-07 00:16:00,34.6,28.5,30.32,South,174,0.0,0.0,78,0.00,,CLR,0.00,VWS V14.01,2013-04-07 04:16:00,
2013-04-07 00:21:00,34.8,28.6,30.32,South,174,0.0,0.0,78,0.00,,CLR,0.00,VWS V14.01,2013-04-07 04:21:00,
2013-04-07 00:26:00,35.0,28.9,30.32,South,174,0.0,0.0,78,0.00,,CLR,0.00,VWS V14.01,2013-04-07 04:26:00,
2013-04-07 00:31:00,34.9,28.4,30.31,South,174,0.0,0.0,77,0.00,,CLR,0.00,VWS V14.01,2013-04-07 04:31:00,
2013-04-07 00:36:00,34.7,28.5,30.31,South,174,0.0,0.0,78,0.00,,CLR,0.00,VWS V14.01,2013-04-07 04:36:00,
2013-04-07 00:41:00,34.7,28.5,30.31,South,174,0.0,0.0,78,0.00,,CLR,0.00,VWS V14.01,2013-04-07 04:41:00,
2013-04-07 00:46:00,34.7,28.5,30.31,South,174,0.0,0.0,78,0.00,,CLR,0.00,VWS V14.01,2013-04-07 04:46:00,
2013-04-07 00:51:00,34.4,28.3,30.31,South,174,0.0,0.0,78,0.00,,CLR,0.00,VWS V14.01,2013-04-07 04:51:00,
2013-04-07 00:56:00,34.1,28.3,30.31,South,174,0.0,0.0,79,0.00,,CLR,0.00,VWS V14.01,2013-04-07 04:56:00,
2013-04-07 01:02:00,34.0,28.2,30.31,South,174,0.0,0.0,79,0.00,,CLR,0.00,VWS V14.01,2013-04-07 05:02:00,
2013-04-07 01:07:00,33.9,28.4,30.31,South,174,0.0,0.0,80,0.00,,CLR,0.00,VWS V14.01,2013-04-07 05:07:00,
2013-04-07 01:12:00,33.8,28.3,30.31,South,174,0.0,0.0,80,0.00,,CLR,0.00,VWS V14.01,2013-04-07 05:12:00,
2013-04-07 01:17:00,33.8,28.6,30.31,South,174,0.0,0.0,81,0.00,,CLR,0.00,VWS V14.01,2013-04-07 05:17:00,
2013-04-07 01:22:00,33.8,28.6,30.30,South,174,0.0,0.0,81,0.00,,CLR,0.00,VWS V14.01,2013-04-07 05:22:00,
2013-04-07 01:27:00,33.7,28.8,30.31,South,174,0.0,0.0,82,0.00,,CLR,0.00,VWS V14.01,2013-04-07 05:27:00,
2013-04-07 01:32:00,33.6,28.7,30.31,South,174,0.0,0.0,82,0.00,,CLR,0.00,VWS V14.01,2013-04-07 05:32:00,
2013-04-07 01:37:00,33.6,28.7,30.30,South,174,0.0,0.0,82,0.00,,CLR,0.00,VWS V14.01,2013-04-07 05:37:00,
2013-04-07 01:42:00,33.6,29.0,30.30,South,174,0.0,0.0,83,0.00,,CLR,0.00,VWS V14.01,2013-04-07 05:42:00,
2013-04-07 01:47:00,33.4,28.8,30.30,South,174,0.0,0.0,83,0.00,,CLR,0.00,VWS V14.01,2013-04-07 05:47:00,
2013-04-07 01:52:00,33.4,29.1,30.29,South,174,0.0,0.0,84,0.00,,CLR,0.00,VWS V14.01,2013-04-07 05:52:00,
2013-04-07 01:57:00,33.4,29.1,30.29,South,174,0.0,0.0,84,0.00,,CLR,0.00,VWS V14.01,2013-04-07 05:57:00,
2013-04-07 02:02:00,33.5,29.5,30.29,South,174,0.0,0.0,85,0.00,,CLR,0.00,VWS V14.01,2013-04-07 06:02:00,
2013-04-07 02:07:00,33.4,29.4,30.28,South,174,0.0,0.0,85,0.00,,CLR,0.00,VWS V14.01,2013-04-07 06:07:00,
2013-04-07 02:12:00,33.4,29.4,30.29,South,174,0.0,0.0,85,0.00,,CLR,0.00,VWS V14.01,2013-04-07 06:12:00,
2013-04-07 02:17:00,33.3,29.3,30.28,South,174,0.0,0.0,85,0.00,,CLR,0.00,VWS V14.01,2013-04-07 06:17:00,
2013-04-07 02:22:00,33.1,29.4,30.28,South,174,0.0,0.0,86,0.00,,CLR,0.00,VWS V14.01,2013-04-07 06:22:00,
2013-04-07 02:27:00,33.3,29.9,30.29,South,174,0.0,0.0,87,0.00,,CLR,0.00,VWS V14.01,2013-04-07 06:27:00,
2013-04-07 02:32:00,33.2,29.5,30.29,South,174,0.0,0.0,86,0.00,,CLR,0.00,VWS V14.01,2013-04-07 06:32:00,
2013-04-07 02:37:00,33.2,29.8,30.28,South,174,0.0,0.0,87,0.00,,CLR,0.00,VWS V14.01,2013-04-07 06:37:00,
2013-04-07 02:42:00,33.2,29.8,30.28,South,174,0.0,0.0,87,0.00,,CLR,0.00,VWS V14.01,2013-04-07 06:42:00,
2013-04-07 02:47:00,33.5,30.3,30.28,South,174,0.0,0.0,88,0.00,,CLR,0.00,VWS V14.01,2013-04-07 06:47:00,
2013-04-07 02:52:00,33.4,30.2,30.28,South,174,0.0,0.0,88,0.00,,CLR,0.00,VWS V14.01,2013-04-07 06:52:00,
2013-04-07 02:57:00,33.4,30.5,30.28,South,174,0.0,0.0,89,0.00,,CLR,0.00,VWS V14.01,2013-04-07 06:57:00,
2013-04-07 03:02:00,33.4,30.5,30.28,South,174,0.0,0.0,89,0.00,,CLR,0.00,VWS V14.01,2013-04-07 07:02:00,
2013-04-07 03:07:00,33.6,30.7,30.28,South,174,0.0,0.0,89,0.00,,CLR,0.00,VWS V14.01,2013-04-07 07:07:00,
2013-04-07 03:12:00,33.7,30.8,30.28,South,174,0.0,0.0,89,0.00,,CLR,0.00,VWS V14.01,2013-04-07 07:12:00,
2013-04-07 03:17:00,33.5,30.6,30.28,South,174,0.0,0.0,89,0.00,,CLR,0.00,VWS V14.01,2013-04-07 07:17:00,
2013-04-07 03:22:00,33.6,31.0,30.27,South,174,0.0,0.0,90,0.00,,CLR,0.00,VWS V14.01,2013-04-07 07:22:00,
2013-04-07 03:27:00,33.7,31.4,30.27,South,174,0.0,1.0,91,0.00,,CLR,0.00,VWS V14.01,2013-04-07 07:27:00,
2013-04-07 03:32:00,33.7,31.4,30.27,South,174,0.0,0.0,91,0.00,,CLR,0.00,VWS V14.01,2013-04-07 07:32:00,
2013-04-07 03:37:00,34.0,31.9,30.27,South,174,0.0,1.0,92,0.00,,CLR,0.00,VWS V14.01,2013-04-07 07:37:00,
2013-04-07 03:42:00,34.3,32.2,30.27,South,174,0.0,0.0,92,0.00,,CLR,0.00,VWS V14.01,2013-04-07 07:42:00,
2013-04-07 03:47:00,34.4,32.3,30.28,South,174,0.0,0.0,92,0.00,,CLR,0.00,VWS V14.01,2013-04-07 07:47:00,
2013-04-07 03:52:00,34.3,32.2,30.27,South,174,0.0,0.0,92,0.00,,CLR,0.00,VWS V14.01,2013-04-07 07:52:00,
2013-04-07 03:57:00,34.2,32.1,30.27,South,174,0.0,0.0,92,0.00,,CLR,0.00,VWS V14.01,2013-04-07 07:57:00,
2013-04-07 04:02:00,33.9,31.8,30.27,South,174,0.0,0.0,92,0.00,,CLR,0.00,VWS V14.01,2013-04-07 08:02:00,
2013-04-07 04:07:00,33.7,31.9,30.27,South,174,0.0,0.0,93,0.00,,CLR,0.00,VWS V14.01,2013-04-07 08:07:00,
2013-04-07 04:12:00,33.9,32.4,30.28,South,174,0.0,1.0,94,0.00,,CLR,0.00,VWS V14.01,2013-04-07 08:12:00,
2013-04-07 04:17:00,33.9,32.4,30.28,South,174,0.0,0.0,94,0.00,,CLR,0.00,VWS V14.01,2013-04-07 08:17:00,
2013-04-07 04:22:00,33.9,32.4,30.28,South,174,0.0,2.0,94,0.00,,CLR,0.00,VWS V14.01,2013-04-07 08:22:00,
2013-04-07 04:27:00,33.8,32.5,30.28,South,183,0.0,2.0,95,0.00,,CLR,0.00,VWS V14.01,2013-04-07 08:27:00,
2013-04-07 04:32:00,33.9,32.4,30.28,South,183,0.0,2.0,94,0.00,,CLR,0.00,VWS V14.01,2013-04-07 08:32:00,
2013-04-07 04:37:00,33.8,32.5,30.28,South,183,0.0,0.0,95,0.00,,CLR,0.00,VWS V14.01,2013-04-07 08:37:00,
2013-04-07 04:42:00,33.9,32.6,30.29,South,177,0.0,0.0,95,0.00,,CLR,0.00,VWS V14.01,2013-04-07 08:42:00,
2013-04-07 04:47:00,33.9,32.6,30.28,South,177,0.0,0.0,95,0.00,,CLR,0.00,VWS V14.01,2013-04-07 08:47:00,
2013-04-07 04:52:00,33.7,32.4,30.28,South,177,0.0,0.0,95,0.00,,CLR,0.00,VWS V14.01,2013-04-07 08:52:00,
2013-04-07 04:57:00,33.8,32.5,30.28,South,177,0.0,0.0,95,0.00,,CLR,0.00,VWS V14.01,2013-04-07 08:57:00,
2013-04-07 05:02:00,33.7,32.4,30.28,South,177,0.0,0.0,95,0.00,,CLR,0.00,VWS V14.01,2013-04-07 09:02:00,
2013-04-07 05:07:00,33.6,32.3,30.28,South,177,0.0,0.0,95,0.00,,CLR,0.00,VWS V14.01,2013-04-07 09:07:00,
2013-04-07 05:12:00,33.7,32.7,30.28,South,177,0.0,0.0,96,0.00,,CLR,0.00,VWS V14.01,2013-04-07 09:12:00,
2013-04-07 05:17:00,33.7,32.9,30.28,South,177,0.0,0.0,97,0.00,,CLR,0.00,VWS V14.01,2013-04-07 09:17:00,
2013-04-07 05:22:00,33.8,32.8,30.28,South,177,0.0,0.0,96,0.00,,CLR,0.00,VWS V14.01,2013-04-07 09:22:00,
2013-04-07 05:27:00,33.9,32.9,30.28,South,177,0.0,0.0,96,0.00,,CLR,0.00,VWS V14.01,2013-04-07 09:27:00,
2013-04-07 05:32:00,33.7,32.7,30.28,South,177,0.0,0.0,96,0.00,,CLR,0.00,VWS V14.01,2013-04-07 09:32:00,
2013-04-07 05:37:00,33.6,32.8,30.28,South,177,0.0,0.0,97,0.00,,CLR,0.00,VWS V14.01,2013-04-07 09:37:00,
2013-04-07 05:42:00,33.5,32.7,30.28,South,177,0.0,2.0,97,0.00,,CLR,0.00,VWS V14.01,2013-04-07 09:42:00,
2013-04-07 05:47:00,33.3,32.5,30.28,South,177,0.0,0.0,97,0.00,,CLR,0.00,VWS V14.01,2013-04-07 09:47:00,
2013-04-07 05:52:00,33.2,32.4,30.29,South,177,0.0,0.0,97,0.00,,CLR,0.00,VWS V14.01,2013-04-07 09:52:00,
2013-04-07 05:57:00,33.3,32.5,30.29,South,177,0.0,0.0,97,0.00,,CLR,0.00,VWS V14.01,2013-04-07 09:57:00,
2013-04-07 06:02:00,33.3,32.5,30.29,South,177,0.0,0.0,97,0.00,,CLR,0.00,VWS V14.01,2013-04-07 10:02:00,
2013-04-07 06:07:00,33.3,32.5,30.29,South,177,0.0,1.0,97,0.00,,CLR,0.00,VWS V14.01,2013-04-07 10:07:00,
2013-04-07 06:13:00,33.3,32.8,30.29,South,177,0.0,0.0,98,0.00,,CLR,0.00,VWS V14.01,2013-04-07 10:13:00,
2013-04-07 06:18:00,33.2,32.7,30.29,South,177,1.0,1.0,98,0.00,,CLR,0.00,VWS V14.01,2013-04-07 10:18:00,
2013-04-07 06:22:00,33.3,32.8,30.29,South,177,0.0,0.0,98,0.00,,CLR,0.00,VWS V14.01,2013-04-07 10:22:00,
2013-04-07 06:28:00,33.5,33.0,30.30,South,177,1.0,3.0,98,0.00,,CLR,0.00,VWS V14.01,2013-04-07 10:28:00,
2013-04-07 06:33:00,33.5,33.2,30.29,South,185,0.0,0.0,99,0.00,,CLR,0.00,VWS V14.01,2013-04-07 10:33:00,
2013-04-07 06:37:00,33.7,33.5,30.29,South,185,0.0,2.0,99,0.00,,CLR,0.00,VWS V14.01,2013-04-07 10:37:00,
2013-04-07 06:43:00,34.0,33.5,30.30,South,183,0.0,2.0,98,0.00,,CLR,0.00,VWS V14.01,2013-04-07 10:43:00,
2013-04-07 06:48:00,34.3,34.0,30.29,South,183,0.0,3.0,99,0.00,,CLR,0.00,VWS V14.01,2013-04-07 10:48:00,
2013-04-07 06:53:00,34.4,33.9,30.30,South,183,0.0,0.0,98,0.00,,CLR,0.00,VWS V14.01,2013-04-07 10:53:00,
2013-04-07 06:58:00,34.6,34.1,30.30,SSE,162,1.0,1.0,98,0.00,,CLR,0.00,VWS V14.01,2013-04-07 10:58:00,
2013-04-07 07:03:00,34.7,34.2,30.30,South,183,3.0,3.0,98,0.00,,CLR,0.00,VWS V14.01,2013-04-07 11:03:00,
2013-04-07 07:08:00,35.0,34.2,30.30,South,182,3.0,5.0,97,0.00,,CLR,0.00,VWS V14.01,2013-04-07 11:08:00,
2013-04-07 07:13:00,35.1,34.3,30.30,South,183,1.0,6.0,97,0.00,,CLR,0.00,VWS V14.01,2013-04-07 11:13:00,
2013-04-07 07:18:00,35.4,34.6,30.30,South,180,1.0,2.0,97,0.00,,CLR,0.00,VWS V14.01,2013-04-07 11:18:00,
2013-04-07 07:23:00,35.5,34.7,30.30,South,181,1.0,1.0,97,0.00,,CLR,0.00,VWS V14.01,2013-04-07 11:23:00,
2013-04-07 07:28:00,35.7,34.7,30.31,SSW,198,0.0,4.0,96,0.00,,CLR,0.00,VWS V14.01,2013-04-07 11:28:00,
2013-04-07 07:33:00,35.8,35.0,30.30,SW,231,0.0,1.0,97,0.00,,CLR,0.00,VWS V14.01,2013-04-07 11:33:00,
2013-04-07 07:38:00,36.1,35.3,30.30,South,181,2.0,2.0,97,0.00,,CLR,0.00,VWS V14.01,2013-04-07 11:38:00,
2013-04-07 07:43:00,36.2,35.4,30.31,South,184,0.0,3.0,97,0.00,,CLR,0.00,VWS V14.01,2013-04-07 11:43:00,
2013-04-07 07:48:00,36.6,35.6,30.31,South,185,0.0,1.0,96,0.00,,CLR,0.00,VWS V14.01,2013-04-07 11:48:00,
2013-04-07 07:53:00,36.9,35.9,30.31,SSW,209,3.0,3.0,96,0.00,,CLR,0.00,VWS V14.01,2013-04-07 11:53:00,
2013-04-07 07:58:00,37.3,36.3,30.30,South,172,0.0,3.0,96,0.00,,CLR,0.00,VWS V14.01,2013-04-07 11:58:00,
2013-04-07 08:03:00,37.4,36.1,30.31,SW,229,2.0,3.0,95,0.00,,CLR,0.00,VWS V14.01,2013-04-07 12:03:00,
2013-04-07 08:08:00,37.7,36.1,30.30,SW,218,1.0,2.0,94,0.00,,FEW120,0.00,VWS V14.01,2013-04-07 12:08:00,
2013-04-07 08:13:00,37.8,36.2,30.30,SW,214,2.0,4.0,94,0.00,,FEW120,0.00,VWS V14.01,2013-04-07 12:13:00,
2013-04-07 08:18:00,38.1,36.5,30.30,East,90,0.0,6.0,94,0.00,,FEW120,0.00,VWS V14.01,2013-04-07 12:18:00,
2013-04-07 08:23:00,38.3,36.2,30.30,ENE,60,1.0,2.0,92,0.00,,FEW120,0.00,VWS V14.01,2013-04-07 12:23:00,
2013-04-07 08:28:00,38.5,36.4,30.30,SE,142,1.0,4.0,92,0.00,,FEW120,0.00,VWS V14.01,2013-04-07 12:28:00,
2013-04-07 08:33:00,38.7,36.0,30.30,WSW,239,1.0,5.0,90,0.00,,FEW120,0.00,VWS V14.01,2013-04-07 12:33:00,
2013-04-07 08:38:00,39.1,36.4,30.30,SSW,204,6.0,6.0,90,0.00,,FEW120,0.00,VWS V14.01,2013-04-07 12:38:00,
2013-04-07 08:43:00,39.2,36.0,30.30,SW,232,4.0,7.0,88,0.00,,FEW120,0.00,VWS V14.01,2013-04-07 12:43:00,
2013-04-07 08:48:00,39.4,35.9,30.30,SSW,203,0.0,4.0,87,0.00,,FEW120,0.00,VWS V14.01,2013-04-07 12:48:00,
2013-04-07 08:53:00,39.7,35.9,30.29,SW,230,2.0,6.0,86,0.00,,FEW120,0.00,VWS V14.01,2013-04-07 12:53:00,
2013-04-07 08:58:00,39.6,35.8,30.30,WSW,253,6.0,6.0,86,0.00,,FEW120,0.00,VWS V14.01,2013-04-07 12:58:00,
2013-04-07 09:03:00,39.8,35.4,30.30,SW,233,3.0,8.0,84,0.00,,FEW120,0.00,VWS V14.01,2013-04-07 13:03:00,
2013-04-07 09:08:00,39.8,35.4,30.30,SSW,210,0.0,4.0,84,0.00,,FEW100,0.00,VWS V14.01,2013-04-07 13:08:00,
2013-04-07 09:13:00,40.1,35.4,30.30,SSW,208,6.0,7.0,83,0.00,,FEW100,0.00,VWS V14.01,2013-04-07 13:13:00,
2013-04-07 09:18:00,40.4,35.7,30.29,South,179,4.0,4.0,83,0.00,,FEW100,0.00,VWS V14.01,2013-04-07 13:18:00,
2013-04-07 09:23:00,40.7,35.6,30.29,SW,236,8.0,8.0,82,0.00,,FEW100,0.00,VWS V14.01,2013-04-07 13:23:00,
2013-04-07 09:28:00,40.6,34.9,30.29,SSW,195,4.0,7.0,80,0.00,,FEW100,0.00,VWS V14.01,2013-04-07 13:28:00,
2013-04-07 09:33:00,41.1,35.1,30.28,East,85,3.0,3.0,79,0.00,,FEW100,0.00,VWS V14.01,2013-04-07 13:33:00,
2013-04-07 09:38:00,41.5,35.2,30.28,SSE,163,7.0,11.0,78,0.00,,FEW100,0.00,VWS V14.01,2013-04-07 13:38:00,
2013-04-07 09:43:00,41.5,34.8,30.28,East,87,5.0,9.0,77,0.00,,FEW100,0.00,VWS V14.01,2013-04-07 13:43:00,
2013-04-07 09:48:00,41.7,35.0,30.28,ESE,102,9.0,9.0,77,0.00,,FEW100,0.00,VWS V14.01,2013-04-07 13:48:00,
2013-04-07 09:53:00,42.1,35.1,30.28,East,90,5.0,10.0,76,0.00,,FEW100,0.00,VWS V14.01,2013-04-07 13:53:00,
2013-04-07 09:58:00,42.5,35.5,30.28,ESE,106,6.0,7.0,76,0.00,,FEW100,0.00,VWS V14.01,2013-04-07 13:58:00,
2013-04-07 10:03:00,42.9,35.5,30.28,SW,230,5.0,10.0,75,0.00,,FEW100,0.00,VWS V14.01,2013-04-07 14:03:00,
2013-04-07 10:08:00,43.1,35.7,30.28,SW,221,7.0,11.0,75,0.00,,CLR,0.00,VWS V14.01,2013-04-07 14:08:00,
2013-04-07 10:13:00,43.2,35.1,30.28,SSW,209,9.0,14.0,73,0.00,,CLR,0.00,VWS V14.01,2013-04-07 14:13:00,
2013-04-07 10:18:00,43.5,34.7,30.28,SW,223,14.0,14.0,71,0.00,,CLR,0.00,VWS V14.01,2013-04-07 14:18:00,
2013-04-07 10:23:00,43.9,35.1,30.27,SSW,202,9.0,9.0,71,0.00,,CLR,0.00,VWS V14.01,2013-04-07 14:23:00,
2013-04-07 10:28:00,44.5,35.0,30.27,WSW,239,8.0,10.0,69,0.00,,CLR,0.00,VWS V14.01,2013-04-07 14:28:00,
2013-04-07 10:33:00,44.9,34.6,30.27,WSW,257,9.0,16.0,67,0.00,,CLR,0.00,VWS V14.01,2013-04-07 14:33:00,
2013-04-07 10:38:00,45.4,34.3,30.27,SW,221,11.0,15.0,65,0.00,,CLR,0.00,VWS V14.01,2013-04-07 14:38:00,
2013-04-07 10:43:00,45.1,33.7,30.27,SSW,206,3.0,11.0,64,0.00,,CLR,0.00,VWS V14.01,2013-04-07 14:43:00,
2013-04-07 10:48:00,45.1,33.3,30.27,SSE,163,6.0,12.0,63,0.00,,CLR,0.00,VWS V14.01,2013-04-07 14:48:00,
2013-04-07 10:53:00,44.5,33.1,30.27,East,89,6.0,15.0,64,0.00,,CLR,0.00,VWS V14.01,2013-04-07 14:53:00,
2013-04-07 10:58:00,44.6,33.6,30.26,SW,229,3.0,7.0,65,0.00,,CLR,0.00,VWS V14.01,2013-04-07 14:58:00,
2013-04-07 11:03:00,45.4,34.0,30.26,WSW,256,1.0,7.0,64,0.00,,CLR,0.00,VWS V14.01,2013-04-07 15:03:00,
2013-04-07 11:08:00,45.9,34.4,30.26,South,186,9.0,9.0,64,0.00,,FEW047,0.00,VWS V14.01,2013-04-07 15:08:00,
2013-04-07 11:13:00,45.7,34.2,30.26,SSW,192,6.0,12.0,64,0.00,,FEW047,0.00,VWS V14.01,2013-04-07 15:13:00,
2013-04-07 11:18:00,45.7,35.0,30.26,SSW,206,2.0,6.0,66,0.00,,FEW047,0.00,VWS V14.01,2013-04-07 15:18:00,
2013-04-07 11:23:00,46.3,35.2,30.25,South,187,4.0,8.0,65,0.00,,FEW047,0.00,VWS V14.01,2013-04-07 15:23:00,
2013-04-07 11:28:00,46.5,35.4,30.25,SSW,210,11.0,13.0,65,0.00,,FEW047,0.00,VWS V14.01,2013-04-07 15:28:00,
2013-04-07 11:33:00,46.3,34.8,30.25,SE,143,9.0,15.0,64,0.00,,FEW047,0.00,VWS V14.01,2013-04-07 15:33:00,
2013-04-07 11:38:00,46.3,35.2,30.25,SSE,162,8.0,17.0,65,0.00,,FEW047,0.00,VWS V14.01,2013-04-07 15:38:00,
2013-04-07 11:43:00,46.8,35.7,30.25,SW,217,6.0,8.0,65,0.00,,FEW047,0.00,VWS V14.01,2013-04-07 15:43:00,
2013-04-07 11:48:00,47.4,36.2,30.25,South,176,5.0,13.0,65,0.00,,FEW047,0.00,VWS V14.01,2013-04-07 15:48:00,
2013-04-07 11:53:00,46.7,35.2,30.25,SSE,149,7.0,14.0,64,0.00,,FEW047,0.00,VWS V14.01,2013-04-07 15:53:00,
2013-04-07 11:58:00,46.7,35.6,30.25,SSW,212,13.0,15.0,65,0.00,,FEW047,0.00,VWS V14.01,2013-04-07 15:58:00,
2013-04-07 12:03:00,46.6,35.9,30.25,SW,230,13.0,13.0,66,0.00,,FEW047,0.00,VWS V14.01,2013-04-07 16:03:00,
2013-04-07 12:08:00,46.8,36.0,30.24,South,187,4.0,7.0,66,0.00,,CLR,0.00,VWS V14.01,2013-04-07 16:08:00,
2013-04-07 12:13:00,48.0,36.8,30.24,SSW,207,9.0,12.0,65,0.00,,CLR,0.00,VWS V14.01,2013-04-07 16:13:00,
2013-04-07 12:18:00,48.5,37.3,30.23,SSW,213,1.0,15.0,65,0.00,,CLR,0.00,VWS V14.01,2013-04-07 16:18:00,
2013-04-07 12:23:00,47.7,36.5,30.23,SW,215,10.0,13.0,65,0.00,,CLR,0.00,VWS V14.01,2013-04-07 16:23:00,
2013-04-07 12:28:00,47.7,36.9,30.23,ESE,114,9.0,13.0,66,0.00,,CLR,0.00,VWS V14.01,2013-04-07 16:28:00,
2013-04-07 12:33:00,48.0,36.8,30.22,South,169,13.0,13.0,65,0.00,,CLR,0.00,VWS V14.01,2013-04-07 16:33:00,
2013-04-07 12:38:00,48.0,37.2,30.22,SW,219,11.0,11.0,66,0.00,,CLR,0.00,VWS V14.01,2013-04-07 16:38:00,
2013-04-07 12:43:00,48.2,37.0,30.22,SSW,195,12.0,13.0,65,0.00,,CLR,0.00,VWS V14.01,2013-04-07 16:43:00,
2013-04-07 12:48:00,47.7,36.9,30.21,South,169,4.0,9.0,66,0.00,,CLR,0.00,VWS V14.01,2013-04-07 16:48:00,
2013-04-07 12:53:00,47.7,36.9,30.21,SSW,213,8.0,9.0,66,0.00,,CLR,0.00,VWS V14.01,2013-04-07 16:53:00,
2013-04-07 12:58:00,47.6,36.8,30.20,East,84,0.0,13.0,66,0.00,,CLR,0.00,VWS V14.01,2013-04-07 16:58:00,
2013-04-07 13:03:00,47.7,37.3,30.20,SSW,195,15.0,15.0,67,0.00,,FEW100,0.00,VWS V14.01,2013-04-07 17:03:00,
2013-04-07 13:08:00,47.7,37.3,30.19,SSE,157,11.0,11.0,67,0.00,,FEW100,0.00,VWS V14.01,2013-04-07 17:08:00,
2013-04-07 13:13:00,47.8,37.8,30.19,SSW,209,5.0,7.0,68,0.00,,FEW100,0.00,VWS V14.01,2013-04-07 17:13:00,
2013-04-07 13:18:00,48.0,37.6,30.20,SSW,197,10.0,15.0,67,0.00,,FEW100,0.00,VWS V14.01,2013-04-07 17:18:00,
2013-04-07 13:23:00,47.8,37.8,30.19,SSW,203,8.0,17.0,68,0.00,,FEW100,0.00,VWS V14.01,2013-04-07 17:23:00,
2013-04-07 13:28:00,48.5,38.4,30.19,SSW,193,11.0,16.0,68,0.00,,FEW100,0.00,VWS V14.01,2013-04-07 17:28:00,
2013-04-07 13:33:00,48.2,38.2,30.19,SSW,196,1.0,13.0,68,0.00,,FEW100,0.00,VWS V14.01,2013-04-07 17:33:00,
2013-04-07 13:38:00,48.6,38.5,30.18,SW,215,15.0,21.0,68,0.00,,FEW100,0.00,VWS V14.01,2013-04-07 17:38:00,
2013-04-07 13:43:00,48.6,38.9,30.18,South,189,5.0,16.0,69,0.00,,FEW100,0.00,VWS V14.01,2013-04-07 17:43:00,
2013-04-07 13:48:00,49.2,39.1,30.18,South,176,9.0,10.0,68,0.00,,FEW100,0.00,VWS V14.01,2013-04-07 17:48:00,
2013-04-07 13:53:00,49.5,39.4,30.18,SSW,195,7.0,13.0,68,0.00,,FEW100,0.00,VWS V14.01,2013-04-07 17:53:00,
2013-04-07 13:58:00,49.6,39.1,30.18,SW,235,14.0,17.0,67,0.00,,FEW100,0.00,VWS V14.01,2013-04-07 17:58:00,
2013-04-07 14:03:00,49.0,38.9,30.18,SSW,205,17.0,25.0,68,0.00,,SCT031,0.00,VWS V14.01,2013-04-07 18:03:00,
2013-04-07 14:09:00,48.6,38.9,30.18,SW,232,9.0,16.0,69,0.00,,SCT031,0.00,VWS V14.01,2013-04-07 18:09:00,
2013-04-07 14:14:00,48.9,39.6,30.17,WSW,237,10.0,16.0,70,0.00,,SCT031,0.00,VWS V14.01,2013-04-07 18:14:00,
2013-04-07 14:19:00,48.8,39.5,30.17,SW,220,8.0,13.0,70,0.00,,SCT031,0.00,VWS V14.01,2013-04-07 18:19:00,
2013-04-07 14:24:00,48.6,39.3,30.17,SSW,204,18.0,23.0,70,0.00,,SCT031,0.00,VWS V14.01,2013-04-07 18:24:00,
2013-04-07 14:29:00,48.8,39.5,30.16,SSW,198,16.0,16.0,70,0.00,,SCT031,0.00,VWS V14.01,2013-04-07 18:29:00,
2013-04-07 14:34:00,48.7,39.4,30.16,SW,226,11.0,17.0,70,0.00,,SCT031,0.00,VWS V14.01,2013-04-07 18:34:00,
2013-04-07 14:39:00,48.8,39.8,30.16,South,175,3.0,15.0,71,0.00,,SCT031,0.00,VWS V14.01,2013-04-07 18:39:00,
2013-04-07 14:44:00,48.9,39.6,30.16,SSW,197,9.0,12.0,70,0.00,,SCT031,0.00,VWS V14.01,2013-04-07 18:44:00,
2013-04-07 14:49:00,48.7,39.7,30.15,SSW,212,7.0,16.0,71,0.00,,SCT031,0.00,VWS V14.01,2013-04-07 18:49:00,
2013-04-07 14:54:00,49.0,40.0,30.16,SSW,211,12.0,12.0,71,0.00,,SCT031,0.00,VWS V14.01,2013-04-07 18:54:00,
2013-04-07 14:59:00,48.9,39.6,30.16,SW,218,9.0,15.0,70,0.00,,SCT031,0.00,VWS V14.01,2013-04-07 18:59:00,
2013-04-07 15:04:00,48.3,39.7,30.15,WSW,240,8.0,15.0,72,0.00,,SCT031,0.00,VWS V14.01,2013-04-07 19:04:00,
2013-04-07 15:09:00,48.2,39.6,30.15,SW,232,8.0,16.0,72,0.00,,SCT031,0.00,VWS V14.01,2013-04-07 19:09:00,
2013-04-07 15:14:00,48.5,39.9,30.14,South,185,9.0,14.0,72,0.00,,SCT031,0.00,VWS V14.01,2013-04-07 19:14:00,
2013-04-07 15:19:00,48.6,40.3,30.14,South,172,1.0,7.0,73,0.00,,SCT031,0.00,VWS V14.01,2013-04-07 19:19:00,
2013-04-07 15:24:00,49.6,41.0,30.13,South,185,11.0,17.0,72,0.00,,SCT031,0.00,VWS V14.01,2013-04-07 19:24:00,
2013-04-07 15:30:00,49.8,40.4,30.13,SSE,163,6.0,15.0,70,0.00,,SCT031,0.00,VWS V14.01,2013-04-07 19:30:00,
2013-04-07 15:35:00,49.9,40.5,30.13,SSE,158,7.0,10.0,70,0.00,,SCT031,0.00,VWS V14.01,2013-04-07 19:35:00,
2013-04-07 15:40:00,49.8,40.0,30.13,South,190,0.0,16.0,69,0.00,,SCT031,0.00,VWS V14.01,2013-04-07 19:40:00,
2013-04-07 15:45:00,49.3,39.6,30.13,SSW,211,12.0,17.0,69,0.00,,SCT031,0.00,VWS V14.01,2013-04-07 19:45:00,
2013-04-07 15:50:00,49.3,40.3,30.13,WSW,243,3.0,9.0,71,0.00,,SCT031,0.00,VWS V14.01,2013-04-07 19:50:00,
2013-04-07 15:55:00,49.3,39.6,30.13,SSE,166,9.0,18.0,69,0.00,,SCT031,0.00,VWS V14.01,2013-04-07 19:55:00,
2013-04-07 16:00:00,48.3,39.3,30.12,SSW,212,7.0,10.0,71,0.00,,SCT031,0.00,VWS V14.01,2013-04-07 20:00:00,
2013-04-07 16:05:00,48.5,39.9,30.12,SE,144,7.0,14.0,72,0.00,,CLR,0.00,VWS V14.01,2013-04-07 20:05:00,
2013-04-07 16:10:00,48.6,40.0,30.11,SSW,207,4.0,9.0,72,0.00,,CLR,0.00,VWS V14.01,2013-04-07 20:10:00,
2013-04-07 16:15:00,48.6,40.0,30.11,SSW,197,7.0,9.0,72,0.00,,CLR,0.00,VWS V14.01,2013-04-07 20:15:00,
2013-04-07 16:20:00,48.9,40.3,30.11,SSW,208,7.0,13.0,72,0.00,,CLR,0.00,VWS V14.01,2013-04-07 20:20:00,
2013-04-07 16:25:00,48.5,39.9,30.11,South,191,13.0,20.0,72,0.00,,CLR,0.00,VWS V14.01,2013-04-07 20:25:00,
2013-04-07 16:30:00,47.8,39.9,30.11,SW,222,10.0,15.0,74,0.00,,CLR,0.00,VWS V14.01,2013-04-07 20:30:00,
2013-04-07 16:35:00,48.0,40.1,30.10,SSW,212,4.0,10.0,74,0.00,,CLR,0.00,VWS V14.01,2013-04-07 20:35:00,
2013-04-07 16:40:00,48.0,40.1,30.11,SSW,196,8.0,13.0,74,0.00,,CLR,0.00,VWS V14.01,2013-04-07 20:40:00,
2013-04-07 16:45:00,48.2,40.3,30.10,SSW,207,8.0,17.0,74,0.00,,CLR,0.00,VWS V14.01,2013-04-07 20:45:00,
2013-04-07 16:50:00,48.2,40.7,30.10,SSW,202,5.0,11.0,75,0.00,,CLR,0.00,VWS V14.01,2013-04-07 20:50:00,
2013-04-07 16:55:00,48.6,40.7,30.09,SSW,213,2.0,6.0,74,0.00,,CLR,0.00,VWS V14.01,2013-04-07 20:55:00,
2013-04-07 17:00:00,48.8,40.9,30.09,South,190,15.0,15.0,74,0.00,,CLR,0.00,VWS V14.01,2013-04-07 21:00:00,
2013-04-07 17:05:00,48.6,41.0,30.08,South,174,4.0,12.0,75,0.00,,CLR,0.00,VWS V14.01,2013-04-07 21:05:00,
2013-04-07 17:10:00,48.7,41.5,30.08,SSE,158,5.0,19.0,76,0.00,,CLR,0.00,VWS V14.01,2013-04-07 21:10:00,
2013-04-07 17:15:00,48.7,41.1,30.07,SSW,197,5.0,11.0,75,0.00,,CLR,0.00,VWS V14.01,2013-04-07 21:15:00,
2013-04-07 17:20:00,48.6,41.4,30.07,SSW,193,6.0,8.0,76,0.00,,CLR,0.00,VWS V14.01,2013-04-07 21:20:00,
2013-04-07 17:25:00,48.6,41.0,30.08,SE,142,3.0,8.0,75,0.00,,CLR,0.00,VWS V14.01,2013-04-07 21:25:00,
2013-04-07 17:30:00,48.4,41.2,30.07,SSW,197,3.0,9.0,76,0.00,,CLR,0.00,VWS V14.01,2013-04-07 21:30:00,
2013-04-07 17:35:00,48.4,41.2,30.08,SW,234,10.0,13.0,76,0.00,,CLR,0.00,VWS V14.01,2013-04-07 21:35:00,
2013-04-07 17:40:00,48.2,41.3,30.08,SW,229,7.0,11.0,77,0.00,,CLR,0.00,VWS V14.01,2013-04-07 21:40:00,
2013-04-07 17:45:00,47.7,40.8,30.09,East,101,15.0,15.0,77,0.00,,CLR,0.00,VWS V14.01,2013-04-07 21:45:00,
2013-04-07 17:50:00,47.4,40.9,30.10,SW,236,5.0,11.0,78,0.00,,CLR,0.00,VWS V14.01,2013-04-07 21:50:00,
2013-04-07 17:55:00,47.1,40.6,30.09,SSW,212,3.0,5.0,78,0.00,,CLR,0.00,VWS V14.01,2013-04-07 21:55:00,
2013-04-07 18:00:00,47.1,40.6,30.09,WSW,237,2.0,8.0,78,0.00,,CLR,0.00,VWS V14.01,2013-04-07 22:00:00,
2013-04-07 18:05:00,47.3,40.8,30.08,SE,136,3.0,7.0,78,0.00,,CLR,0.00,VWS V14.01,2013-04-07 22:05:00,
2013-04-07 18:10:00,47.0,40.5,30.08,SSW,194,10.0,13.0,78,0.00,,CLR,0.00,VWS V14.01,2013-04-07 22:10:00,
2013-04-07 18:15:00,47.0,40.2,30.06,South,170,2.0,9.0,77,0.00,,CLR,0.00,VWS V14.01,2013-04-07 22:15:00,
2013-04-07 18:20:00,46.8,40.3,30.06,SSW,212,4.0,7.0,78,0.00,,CLR,0.00,VWS V14.01,2013-04-07 22:20:00,
2013-04-07 18:25:00,46.9,40.4,30.06,South,183,5.0,11.0,78,0.00,,CLR,0.00,VWS V14.01,2013-04-07 22:25:00,
2013-04-07 18:31:00,46.7,40.5,30.06,SW,215,6.0,14.0,79,0.00,,CLR,0.00,VWS V14.01,2013-04-07 22:31:00,
2013-04-07 18:36:00,46.6,40.5,30.07,SW,218,8.0,11.0,79,0.00,,CLR,0.00,VWS V14.01,2013-04-07 22:36:00,
2013-04-07 18:41:00,46.4,40.6,30.07,SSW,205,12.0,13.0,80,0.00,,CLR,0.00,VWS V14.01,2013-04-07 22:41:00,
2013-04-07 18:46:00,46.3,40.5,30.07,SSE,164,0.0,6.0,80,0.00,,CLR,0.00,VWS V14.01,2013-04-07 22:46:00,
2013-04-07 18:51:00,46.1,40.3,30.07,SSW,205,13.0,13.0,80,0.00,,CLR,0.00,VWS V14.01,2013-04-07 22:51:00,
2013-04-07 18:56:00,46.2,40.7,30.07,SSW,193,3.0,8.0,81,0.00,,CLR,0.00,VWS V14.01,2013-04-07 22:56:00,
2013-04-07 19:01:00,46.0,40.5,30.06,SSW,206,1.0,5.0,81,0.00,,CLR,0.00,VWS V14.01,2013-04-07 23:01:00,
2013-04-07 19:06:00,46.0,40.5,30.07,South,185,3.0,3.0,81,0.00,,CLR,0.00,VWS V14.01,2013-04-07 23:06:00,
2013-04-07 19:11:00,46.0,40.5,30.07,South,185,2.0,5.0,81,0.00,,CLR,0.00,VWS V14.01,2013-04-07 23:11:00,
2013-04-07 19:16:00,45.8,40.3,30.07,SSW,200,0.0,4.0,81,0.00,,CLR,0.00,VWS V14.01,2013-04-07 23:16:00,
2013-04-07 19:21:00,45.8,40.3,30.07,SSW,211,5.0,8.0,81,0.00,,CLR,0.00,VWS V14.01,2013-04-07 23:21:00,
2013-04-07 19:26:00,45.8,40.3,30.08,SSW,211,6.0,11.0,81,0.00,,CLR,0.00,VWS V14.01,2013-04-07 23:26:00,
2013-04-07 19:31:00,45.7,40.2,30.08,SSW,210,1.0,4.0,81,0.00,,CLR,0.00,VWS V14.01,2013-04-07 23:31:00,
2013-04-07 19:36:00,45.7,40.2,30.07,SSW,207,6.0,11.0,81,0.00,,CLR,0.00,VWS V14.01,2013-04-07 23:36:00,
2013-04-07 19:41:00,45.7,40.5,30.07,South,180,6.0,11.0,82,0.00,,CLR,0.00,VWS V14.01,2013-04-07 23:41:00,
2013-04-07 19:46:00,45.6,40.7,30.06,SW,214,4.0,7.0,83,0.00,,CLR,0.00,VWS V14.01,2013-04-07 23:46:00,
2013-04-07 19:51:00,45.6,41.0,30.07,West,268,2.0,10.0,84,0.00,,CLR,0.00,VWS V14.01,2013-04-07 23:51:00,
2013-04-07 19:56:00,45.6,41.0,30.07,SSW,201,3.0,9.0,84,0.00,,CLR,0.00,VWS V14.01,2013-04-07 23:56:00,
2013-04-07 20:01:00,45.4,41.2,30.07,SSW,199,8.0,12.0,85,0.00,,CLR,0.00,VWS V14.01,2013-04-08 00:01:00,
2013-04-07 20:07:00,45.4,41.5,30.08,SW,230,2.0,11.0,86,0.00,,SCT046,0.00,VWS V14.01,2013-04-08 00:07:00,
2013-04-07 20:12:00,45.3,41.4,30.08,SW,231,6.0,11.0,86,0.00,,SCT046,0.00,VWS V14.01,2013-04-08 00:12:00,
2013-04-07 20:17:00,45.3,41.7,30.07,SSW,200,2.0,5.0,87,0.00,,SCT046,0.00,VWS V14.01,2013-04-08 00:17:00,
2013-04-07 20:22:00,45.3,41.7,30.08,SW,228,5.0,10.0,87,0.00,,SCT046,0.00,VWS V14.01,2013-04-08 00:22:00,
2013-04-07 20:27:00,45.3,42.0,30.07,SSW,198,8.0,8.0,88,0.00,,SCT046,0.00,VWS V14.01,2013-04-08 00:27:00,
2013-04-07 20:32:00,45.1,41.8,30.08,SSW,213,7.0,8.0,88,0.00,,SCT046,0.00,VWS V14.01,2013-04-08 00:32:00,
2013-04-07 20:37:00,45.1,42.1,30.07,SW,235,5.0,6.0,89,0.00,,SCT046,0.00,VWS V14.01,2013-04-08 00:37:00,
2013-04-07 20:42:00,45.1,42.1,30.08,South,183,3.0,6.0,89,0.00,,SCT046,0.00,VWS V14.01,2013-04-08 00:42:00,
2013-04-07 20:47:00,45.1,42.1,30.08,SW,234,7.0,10.0,89,0.00,,SCT046,0.00,VWS V14.01,2013-04-08 00:47:00,
2013-04-07 20:52:00,45.3,42.3,30.08,SW,231,8.0,9.0,89,0.00,,SCT046,0.00,VWS V14.01,2013-04-08 00:52:00,
2013-04-07 20:57:00,45.3,42.5,30.08,SW,229,4.0,11.0,90,0.00,,SCT046,0.00,VWS V14.01,2013-04-08 00:57:00,
2013-04-07 21:02:00,45.1,42.3,30.08,SSW,201,3.0,11.0,90,0.00,,SCT046,0.00,VWS V14.01,2013-04-08 01:02:00,
2013-04-07 21:07:00,45.1,42.3,30.07,SW,214,4.0,5.0,90,0.00,,OVC080,0.00,VWS V14.01,2013-04-08 01:07:00,
2013-04-07 21:12:00,44.9,42.4,30.07,South,171,1.0,13.0,91,0.00,,OVC080,0.00,VWS V14.01,2013-04-08 01:12:00,
2013-04-07 21:17:00,44.9,42.7,30.07,South,182,2.0,9.0,92,0.00,,OVC080,0.00,VWS V14.01,2013-04-08 01:17:00,
2013-04-07 21:22:00,44.8,42.6,30.07,SW,226,5.0,5.0,92,0.00,,OVC080,0.00,VWS V14.01,2013-04-08 01:22:00,
2013-04-07 21:27:00,44.8,42.6,30.07,SW,227,8.0,8.0,92,0.00,,OVC080,0.00,VWS V14.01,2013-04-08 01:27:00,
2013-04-07 21:32:00,44.6,42.7,30.06,SW,223,4.0,7.0,93,0.00,,OVC080,0.00,VWS V14.01,2013-04-08 01:32:00,
2013-04-07 21:37:00,44.6,43.0,30.07,SW,215,9.0,9.0,94,0.00,,OVC080,0.00,VWS V14.01,2013-04-08 01:37:00,
2013-04-07 21:42:00,44.5,42.9,30.07,SW,216,6.0,8.0,94,0.00,,OVC080,0.00,VWS V14.01,2013-04-08 01:42:00,
2013-04-07 21:47:00,44.5,43.2,30.06,SW,218,3.0,4.0,95,0.00,,OVC080,0.00,VWS V14.01,2013-04-08 01:47:00,
2013-04-07 21:52:00,44.5,43.2,30.06,SSW,206,2.0,5.0,95,0.00,,OVC080,0.00,VWS V14.01,2013-04-08 01:52:00,
2013-04-07 21:57:00,44.5,43.4,30.06,SSW,197,4.0,8.0,96,0.00,,OVC080,0.00,VWS V14.01,2013-04-08 01:57:00,
2013-04-07 22:02:00,44.5,43.4,30.06,SSW,196,9.0,9.0,96,0.00,,OVC080,0.00,VWS V14.01,2013-04-08 02:02:00,
2013-04-07 22:07:00,44.4,43.3,30.06,SW,231,7.0,11.0,96,0.00,,CLR,0.00,VWS V14.01,2013-04-08 02:07:00,
2013-04-07 22:12:00,44.3,43.5,30.06,SW,220,4.0,11.0,97,0.00,,CLR,0.00,VWS V14.01,2013-04-08 02:12:00,
2013-04-07 22:17:00,44.2,43.4,30.05,SSW,196,5.0,11.0,97,0.00,,CLR,0.00,VWS V14.01,2013-04-08 02:17:00,
2013-04-07 22:22:00,44.2,43.4,30.05,SW,219,4.0,5.0,97,0.00,,CLR,0.00,VWS V14.01,2013-04-08 02:22:00,
2013-04-07 22:27:00,44.1,43.6,30.05,SW,219,4.0,8.0,98,0.00,,CLR,0.00,VWS V14.01,2013-04-08 02:27:00,
2013-04-07 22:32:00,44.0,43.5,30.05,South,170,4.0,8.0,98,0.00,,CLR,0.00,VWS V14.01,2013-04-08 02:32:00,
2013-04-07 22:37:00,44.1,43.6,30.05,WSW,243,7.0,9.0,98,0.00,,CLR,0.00,VWS V14.01,2013-04-08 02:37:00,
2013-04-07 22:43:00,44.1,43.8,30.05,SW,230,4.0,7.0,99,0.00,,CLR,0.00,VWS V14.01,2013-04-08 02:43:00,
2013-04-07 22:48:00,44.1,43.8,30.05,WSW,242,6.0,6.0,99,0.00,,CLR,0.00,VWS V14.01,2013-04-08 02:48:00,
2013-04-07 22:53:00,44.0,44.0,30.05,WSW,238,3.0,5.0,100,0.00,,CLR,0.00,VWS V14.01,2013-04-08 02:53:00,
2013-04-07 22:58:00,44.1,44.1,30.05,South,185,3.0,4.0,100,0.00,,CLR,0.00,VWS V14.01,2013-04-08 02:58:00,
2013-04-07 23:03:00,44.0,44.0,30.05,SW,233,6.0,7.0,100,0.00,,CLR,0.00,VWS V14.01,2013-04-08 03:03:00,
2013-04-07 23:08:00,44.0,44.0,30.05,SSW,203,4.0,6.0,100,0.00,,CLR,0.00,VWS V14.01,2013-04-08 03:08:00,
2013-04-07 23:13:00,44.1,44.1,30.05,WSW,237,4.0,6.0,100,0.00,,CLR,0.00,VWS V14.01,2013-04-08 03:13:00,
2013-04-07 23:18:00,44.1,44.1,30.04,SW,230,4.0,7.0,100,0.00,,CLR,0.00,VWS V14.01,2013-04-08 03:18:00,
2013-04-07 23:23:00,44.1,44.1,30.05,SSW,204,0.0,4.0,100,0.00,,CLR,0.00,VWS V14.01,2013-04-08 03:23:00,
2013-04-07 23:28:00,44.1,44.1,30.04,SSW,192,3.0,4.0,100,0.00,,CLR,0.00,VWS V14.01,2013-04-08 03:28:00,
2013-04-07 23:33:00,43.9,43.9,30.04,SW,217,1.0,6.0,100,0.00,,CLR,0.00,VWS V14.01,2013-04-08 03:33:00,
2013-04-07 23:38:00,43.9,43.9,30.04,SSW,197,1.0,3.0,100,0.00,,CLR,0.00,VWS V14.01,2013-04-08 03:38:00,
2013-04-07 23:43:00,43.8,43.8,30.05,SSW,211,3.0,6.0,100,0.00,,CLR,0.00,VWS V14.01,2013-04-08 03:43:00,
2013-04-07 23:49:00,43.8,43.8,30.05,SW,231,1.0,7.0,100,0.00,,CLR,0.00,VWS V14.01,2013-04-08 03:49:00,
2013-04-07 23:54:00,43.8,43.8,30.04,South,190,3.0,5.0,100,0.00,,CLR,0.00,VWS V14.01,2013-04-08 03:54:00,
2013-04-07 23:59:00,43.8,43.8,30.04,WSW,242,0.0,2.0,100,0.00,,CLR,0.00,VWS V14.01,2013-04-08 03:59:00,